Theta_e
326 327 326 325 324 323 322 321 321 320 320 319 319 319 319 319 319 320 320 321 321 321 322 323 324 324 310 298 300 311 321 317 307 304 300 298 295 294 292 294 294 292 293 295 296 295 294
322 323 325 326 326 325 324 323 322 321 321 320 319 319 319 319 319 320 320 320 321 321 321 322 324 322 302 291 309 308 306 305 304 302 299 299 296 296 294 292 292 294 295 294 295 295 295
320 322 322 323 323 325 324 324 324 323 322 321 319 319 319 318 318 319 320 320 320 320 320 322 323 313 298 296 309 305 306 303 303 302 300 300 300 297 296 294 295 293 291 293 292 294 294
318 318 321 321 322 322 323 324 324 323 323 321 320 319 318 318 318 318 318 319 320 320 321 322 323 304 292 306 309 306 304 302 304 303 302 301 301 299 296 295 293 290 290 287 291 293 294
314 315 316 319 319 319 320 321 323 324 323 321 320 319 319 318 318 318 318 319 319 320 321 321 305 300 291 311 306 307 303 301 301 301 301 303 299 294 294 290 288 287 284 285 289 293 292
312 312 312 314 316 317 317 318 319 320 320 322 320 319 319 318 318 317 318 319 318 317 314 309 306 292 295 297 304 304 302 302 299 297 297 297 293 290 288 288 282 284 285 285 286 290 290
311 311 311 311 312 314 315 316 316 316 318 319 320 320 319 319 318 318 313 303 293 291 300 292 291 291 296 302 304 301 302 300 297 296 290 292 289 287 289 289 287 287 285 285 287 291 290
309 309 308 309 310 311 313 314 315 315 314 316 318 319 320 319 318 318 310 299 296 298 292 298 297 298 301 303 298 300 302 296 293 290 290 289 287 290 291 289 289 287 285 286 288 289 290
306 306 306 307 307 308 310 312 314 314 313 313 315 317 319 319 318 313 307 304 310 304 290 293 300 298 298 301 297 298 300 295 291 289 289 287 289 291 291 288 288 286 285 285 287 288 288
307 306 306 306 305 306 308 310 310 312 313 312 312 314 318 318 312 311 308 310 312 306 287 290 292 298 299 300 293 299 300 297 291 290 288 288 291 290 288 287 289 284 289 288 286 286 282
305 306 306 307 306 305 305 307 308 309 311 312 311 312 316 318 310 309 311 315 311 304 283 293 292 300 297 293 293 295 298 295 291 291 290 288 289 289 287 289 290 287 289 288 287 285 283
303 305 306 307 308 307 305 305 306 307 308 310 310 311 311 314 313 313 316 315 309 292 283 289 294 292 292 292 292 293 295 296 294 291 289 288 290 291 291 290 290 290 288 287 285 284 279
303 303 304 305 307 308 306 304 304 304 306 308 308 310 308 309 309 316 314 307 289 283 295 288 289 291 290 288 289 290 290 289 287 284 284 286 288 289 291 288 289 288 286 279 277 276 279
302 302 303 304 305 306 307 307 305 304 303 305 306 308 304 307 310 315 308 295 283 287 289 292 291 290 288 290 288 288 288 286 289 285 282 283 280 288 291 290 288 287 286 280 274 274 277
301 302 301 302 304 305 306 307 307 306 305 305 305 298 300 305 310 313 300 286 288 288 292 292 292 288 286 288 288 287 286 286 289 288 284 281 282 287 288 289 292 286 284 287 282 270 276
301 301 300 301 303 304 304 305 307 307 306 304 295 294 296 305 309 308 296 289 292 295 293 293 290 292 286 288 287 286 285 288 289 291 290 286 281 285 287 290 289 287 290 283 281 274 271
301 302 301 300 301 303 304 304 304 306 306 304 291 287 295 305 309 298 289 290 291 295 296 293 290 290 289 288 288 285 287 288 290 289 294 290 287 283 286 285 285 286 285 284 284 281 275
303 302 302 300 301 302 302 304 304 304 305 297 289 281 296 306 292 293 288 289 296 294 295 295 294 294 291 290 289 287 286 288 291 291 289 291 288 280 283 285 286 285 285 285 281 278 279
303 302 302 301 301 301 300 303 302 304 304 291 284 284 294 301 282 284 287 289 291 292 294 294 293 293 295 291 288 289 289 292 292 292 290 292 287 277 281 284 283 283 285 286 285 283 280
303 303 303 302 302 302 301 302 302 303 304 296 288 279 284 291 290 286 284 285 286 291 291 294 293 294 293 291 294 289 288 290 292 293 297 296 290 285 283 283 285 282 283 287 288 282 285
303 302 303 303 302 302 302 301 302 302 303 297 289 283 283 277 281 285 288 288 285 284 291 292 290 292 292 289 290 290 292 289 291 294 294 294 287 289 289 289 285 285 284 285 286 288 284
302 302 302 302 302 301 301 301 302 302 302 293 286 284 285 281 283 281 282 281 284 287 289 288 287 290 290 289 291 288 290 291 291 289 291 292 287 288 286 289 289 285 285 286 287 288 288
302 302 302 302 302 302 301 301 301 302 300 289 292 292 288 283 280 279 279 282 282 284 286 288 287 286 286 290 295 296 296 295 295 293 291 290 287 286 284 287 285 283 287 288 289 289 288
301 301 302 301 302 301 301 301 301 302 300 292 290 290 284 277 281 280 281 282 281 282 283 286 289 287 292 297 297 295 294 294 294 293 296 289 288 287 284 284 278 288 292 293 291 292 293
301 301 301 302 301 301 301 301 301 301 301 294 293 288 285 274 281 281 280 281 282 282 281 283 285 289 293 291 286 284 283 283 285 290 292 294 290 284 282 283 286 284 287 288 287 289 294
300 301 300 302 302 301 301 301 301 301 301 292 292 294 288 278 277 281 279 280 276 270 271 275 284 288 291 287 284 279 277 278 277 283 289 291 293 286 284 281 278 286 292 292 290 285 295
300 300 301 301 301 301 301 301 301 301 301 292 292 295 289 281 279 281 276 278 280 276 273 270 279 285 288 283 279 278 274 283 280 278 279 284 285 283 283 282 285 287 283 290 283 285 282
298 301 300 301 301 300 300 300 301 301 301 296 291 294 288 283 280 285 284 279 279 278 275 273 276 277 276 276 279 278 278 275 280 280 281 282 282 282 284 281 279 284 285 286 288 283 282
294 300 300 299 300 299 299 300 300 300 300 298 289 293 293 285 278 288 287 288 287 286 282 283 277 277 282 273 275 276 279 282 277 276 285 282 285 284 286 285 288 290 290 293 288 285 284
Wind_Speed
10 12 13 13 12 11 11 10 9 7 6 4 1 0 2 4 5 7 8 9 9 10 11 12 13 15 2 2 2 2 3 3 0 2 3 2 4 4 6 4 3 3 3 1 0 2 2
15 15 10 11 11 11 10 10 11 9 8 7 5 3 1 2 5 6 8 10 10 10 12 12 13 13 2 2 1 4 2 1 4 3 2 3 5 4 6 3 4 3 3 1 1 2 2
17 16 14 12 9 7 8 9 9 9 9 8 6 4 4 3 3 6 8 10 11 11 12 11 11 3 3 4 2 3 3 2 1 3 3 1 4 3 4 4 1 2 1 5 1 1 1
16 17 17 15 15 10 11 9 8 8 9 8 7 7 5 4 3 5 8 10 11 12 12 10 8 1 3 2 0 2 2 3 4 5 4 2 4 7 4 4 7 4 5 2 3 1 2
12 14 16 17 15 14 14 11 6 6 6 7 7 6 6 5 3 4 7 10 12 11 11 6 2 1 3 2 3 2 3 4 3 4 5 3 7 4 4 6 5 6 2 2 8 4 0
10 9 13 14 16 14 16 15 13 9 8 6 6 6 7 5 3 4 8 10 8 8 2 1 2 3 1 3 1 1 3 4 5 3 5 8 6 4 4 4 6 5 3 3 5 2 1
11 12 13 12 14 15 16 13 13 14 11 9 2 6 7 6 4 3 6 4 5 3 2 6 2 2 2 1 0 1 1 4 3 8 4 4 5 8 11 5 3 6 3 4 4 3 3
8 9 11 12 12 12 12 13 13 13 13 11 9 6 7 7 3 2 4 3 1 1 6 3 2 3 2 4 3 2 4 5 4 5 4 5 7 6 6 6 4 3 2 6 5 2 4
10 9 9 8 10 10 10 10 12 13 13 13 11 9 3 7 6 2 2 3 2 3 1 6 5 5 5 7 6 8 9 5 4 6 7 8 4 5 7 5 6 4 6 5 7 3 3
10 9 9 9 5 9 9 9 8 9 8 11 13 12 5 12 4 3 2 1 3 2 2 7 6 6 4 7 4 1 5 7 3 11 8 5 3 5 4 5 8 4 8 4 2 3 5
11 12 9 9 9 5 8 7 7 8 9 8 10 12 4 3 5 2 2 3 3 2 5 2 1 1 1 6 5 2 2 3 10 9 8 9 9 6 4 7 7 7 6 7 3 3 4
13 12 11 11 10 7 5 7 7 8 10 10 11 10 11 1 1 2 3 4 3 4 11 2 2 2 5 2 3 2 3 5 4 5 1 4 1 6 7 3 2 10 7 6 5 2 5
13 15 11 10 12 9 9 6 6 7 6 8 8 10 5 0 2 5 3 3 2 5 3 4 3 3 2 4 2 2 6 6 8 5 7 1 4 3 4 7 4 1 6 2 4 1 10
13 14 13 12 11 9 7 7 8 5 6 7 9 7 2 3 1 3 1 3 8 6 5 1 1 3 7 7 3 3 6 6 6 4 4 8 7 11 7 10 10 10 9 8 9 5 4
15 14 11 12 11 10 9 8 8 6 4 5 6 3 3 4 5 3 4 5 10 9 7 9 4 2 4 2 4 2 6 5 9 11 10 7 7 1 3 2 9 7 8 2 4 3 3
16 13 10 13 12 11 9 6 7 5 5 1 1 1 3 4 5 3 5 16 8 7 6 2 9 6 6 6 5 7 7 5 6 12 1 5 3 1 2 3 2 5 6 4 2 4 5
16 18 16 12 15 11 10 7 3 7 6 4 3 1 4 4 4 2 10 8 5 5 3 7 8 10 7 6 7 5 9 6 7 5 15 6 5 1 3 7 11 4 4 2 5 5 6
21 18 17 17 15 14 9 10 8 5 7 5 2 0 4 4 5 3 13 5 7 3 6 11 3 7 7 8 6 5 12 7 6 8 10 7 4 5 10 1 1 1 4 7 6 5 4
24 21 21 18 18 17 15 13 9 9 11 4 4 3 3 2 6 10 3 7 3 3 7 6 8 9 9 9 8 11 8 6 10 9 10 9 5 2 7 2 3 5 7 6 4 4 10
26 22 22 23 18 18 16 15 12 11 13 4 3 2 4 2 2 6 10 6 6 5 14 9 4 6 2 8 14 8 7 5 8 10 8 8 5 9 13 6 6 5 6 11 13 4 21
27 24 23 25 22 20 18 17 16 15 13 4 3 5 4 4 7 6 1 3 8 10 8 5 10 12 9 9 8 12 8 3 1 4 3 9 11 16 21 16 5 8 6 10 17 27 17
28 28 25 25 22 22 22 21 18 17 16 4 5 4 1 1 1 7 10 10 8 5 2 6 17 12 14 22 17 13 7 6 8 1 6 4 14 11 19 19 19 13 9 13 22 25 19
29 29 29 28 25 25 24 23 20 19 17 2 3 2 3 4 4 4 6 3 5 6 12 15 15 14 17 13 10 16 14 10 6 9 6 5 2 6 17 17 7 10 28 26 18 16 18
30 30 30 29 27 25 25 26 23 21 19 3 3 3 5 6 7 10 5 6 10 5 8 6 4 5 4 4 8 10 9 10 9 12 10 6 15 10 11 8 19 17 11 22 28 29 25
31 30 30 30 29 26 27 27 26 23 22 5 3 4 4 4 3 5 4 5 4 2 4 3 8 8 1 3 5 10 9 5 10 16 15 15 15 7 9 16 17 4 12 15 13 26 22
32 31 29 28 28 27 27 27 26 25 23 5 5 4 3 4 11 6 6 8 7 3 6 7 6 3 2 2 4 7 9 7 6 5 19 21 19 12 6 10 14 14 27 9 7 12 23
34 32 29 30 30 28 27 28 29 28 25 6 3 10 2 2 4 6 6 7 5 3 4 3 2 2 5 6 10 5 7 3 6 9 7 8 10 23 23 19 9 9 6 6 12 12 3
27 33 30 30 30 28 27 28 29 28 27 12 3 10 8 3 3 5 7 6 2 4 6 5 5 3 0 5 5 4 4 6 5 7 6 13 10 12 12 17 25 1 4 13 6 1 3
23 34 30 30 31 28 28 28 29 28 27 19 3 6 5 3 4 2 5 6 9 15 5 3 5 5 5 2 4 4 8 5 6 12 4 8 9 3 6 1 2 7 12 15 4 5 6
Wind_Direction
26 216 206 206 206 204 196 191 185 187 174 164 203 181 352 7 358 354 350 349 355 350 341 343 339 334 351 90 192 343 326 1 107 79 69 117 91 117 142 130 94 99 200 231 131 135 158
32 33 34 219 209 206 203 199 191 191 189 186 208 216 235 337 339 346 342 339 341 339 336 341 340 326 87 216 270 336 331 71 53 79 53 47 150 157 110 93 107 142 153 276 311 181 179
30 35 31 31 54 207 210 205 203 189 199 187 204 227 255 257 310 333 336 329 328 328 330 334 337 6 72 223 332 329 32 85 38 84 104 44 126 83 137 102 67 65 354 330 243 297 250
39 30 32 30 34 46 52 224 206 198 204 194 203 217 233 271 285 315 327 322 318 320 320 321 322 7 218 289 225 46 4 52 47 47 93 6 89 106 72 113 32 61 54 10 312 170 329
37 37 27 33 38 38 38 39 40 227 220 214 210 219 228 238 282 313 313 311 308 308 307 320 28 68 269 335 85 348 10 131 74 59 36 62 66 87 52 88 27 10 199 218 317 200 25
33 29 24 24 29 32 42 32 31 45 38 236 221 224 232 235 250 317 314 302 300 314 299 329 63 29 89 178 94 72 30 74 97 81 28 40 51 73 42 95 211 195 184 239 247 247 193
20 33 24 17 23 19 36 34 33 36 36 20 323 232 233 228 237 27 13 12 20 332 39 196 201 156 147 187 202 54 89 86 77 58 149 355 95 208 199 183 126 132 153 222 237 226 219
353 9 15 3 2 18 21 24 34 43 36 23 12 360 224 209 193 58 87 46 358 254 317 208 236 283 213 178 112 222 120 133 128 158 128 40 219 206 126 145 131 142 144 262 277 236 192
307 307 321 346 346 357 8 24 28 30 31 31 15 1 308 178 122 51 91 224 51 5 271 287 195 185 201 144 206 199 138 136 125 129 187 168 219 134 132 142 145 193 180 225 233 337 251
338 317 312 312 341 341 354 7 23 25 32 23 20 19 343 124 128 152 252 354 237 16 22 263 230 255 133 152 238 1 175 140 150 189 158 225 229 142 138 182 153 213 205 157 171 43 258
318 328 320 298 292 308 321 338 7 12 28 35 22 24 88 124 141 162 72 281 192 62 264 278 127 38 82 173 146 320 310 49 163 172 136 234 170 169 169 197 156 218 130 157 141 174 349
306 312 316 319 294 253 259 301 329 3 5 9 9 7 353 267 40 101 154 138 243 131 227 273 91 135 122 24 46 88 135 65 144 116 221 224 126 166 192 104 133 147 79 51 51 82 286
291 293 308 318 321 295 237 260 286 314 351 355 356 340 2 354 101 156 177 72 35 227 14 204 176 161 131 149 102 147 160 167 159 138 223 112 213 189 149 91 48 125 107 317 331 15 235
275 278 287 302 314 319 283 252 249 265 319 320 337 320 318 247 12 172 108 99 198 207 217 180 148 86 191 158 189 151 134 184 236 121 133 176 270 167 187 183 171 200 164 169 205 200 261
270 277 260 277 292 301 304 263 244 229 260 311 346 343 316 254 185 214 160 217 216 157 191 164 74 130 237 170 151 151 209 225 201 179 178 166 267 224 156 144 149 202 208 148 93 68 40
265 261 264 265 268 271 281 300 240 237 240 307 95 8 252 247 153 197 207 227 234 158 139 182 191 156 191 177 168 174 180 219 216 190 158 212 275 319 150 126 41 160 173 92 346 186 242
247 255 252 243 259 254 241 246 271 245 220 130 59 25 256 180 140 171 237 225 211 164 173 183 200 187 201 167 206 217 206 243 210 189 195 153 160 229 132 210 167 145 211 133 133 157 182
239 244 245 251 242 250 252 238 233 248 198 78 109 225 285 170 170 202 225 203 174 163 193 241 214 230 206 168 196 239 220 234 147 146 168 212 157 196 207 239 196 101 219 152 144 223 245
241 242 238 239 229 229 242 235 226 227 175 130 150 256 325 226 192 211 252 242 224 159 195 191 220 220 235 212 233 203 233 200 179 163 171 180 180 338 335 9 356 211 202 188 123 94 217
243 232 235 235 231 231 223 218 221 220 189 121 147 222 301 259 320 202 220 250 229 207 235 258 250 215 202 251 233 247 246 207 205 198 187 159 152 189 228 199 131 193 210 202 199 178 242
238 241 229 232 222 216 221 219 217 217 209 150 172 217 191 209 238 217 173 277 226 224 220 235 247 243 225 237 234 254 267 328 198 245 233 174 208 218 239 241 187 196 189 198 206 228 223
239 241 229 227 225 232 221 213 212 215 206 196 169 166 125 223 300 176 209 225 224 235 309 224 234 253 235 242 246 260 213 206 225 50 201 217 239 206 245 237 234 233 196 211 217 234 243
238 238 233 226 227 219 227 217 211 216 197 187 146 180 108 210 173 144 207 200 246 219 254 236 259 280 285 279 314 281 271 259 206 216 206 224 243 198 238 238 215 233 231 230 230 224 216
241 237 233 230 228 223 216 219 214 211 197 142 183 115 172 224 198 213 183 212 244 257 258 309 331 294 319 319 296 301 275 270 243 238 208 213 234 219 253 250 230 239 236 224 228 238 227
238 236 233 230 225 223 220 218 215 212 205 182 162 153 160 241 175 212 234 247 294 189 234 230 267 258 287 295 277 262 260 260 237 230 232 222 228 261 234 233 251 285 229 209 188 245 233
238 233 229 229 220 221 220 218 213 211 209 147 176 159 154 144 229 164 189 211 232 185 337 239 253 221 198 259 242 233 218 195 245 247 214 209 217 227 226 241 239 230 257 179 121 248 248
236 234 225 227 217 218 217 216 213 211 208 159 174 175 143 208 201 138 186 210 158 175 206 233 143 239 197 223 248 244 236 191 246 231 179 188 211 227 239 259 257 249 238 124 189 242 215
260 230 223 223 218 218 215 212 212 207 207 182 168 176 183 204 239 207 197 170 121 180 204 241 47 288 272 240 244 217 233 238 224 211 235 243 233 225 229 243 249 103 50 205 245 288 164
285 231 216 220 213 215 212 211 207 207 205 182 150 170 157 154 213 189 223 238 217 229 216 207 220 173 220 191 212 202 248 257 231 250 180 250 223 276 233 239 159 347 290 287 218 213 227